Location: Paris
(48.6709°N, 2.3750°E)
Time: 11:12:55
(UTC+02:00)

QB50P2 - Pass Details

Date: 30 June 2022
Orbit: 590 x 605 km, 97.9° (Epoch: 14 August)

Event Time Altitude Azimuth Distance (km) Brightness Sun altitude
Rises 03:29:40 0° 12° (NNE) 2,860 ? -15.0°
Reaches altitude 10° 03:31:51 10° 11° (NNE) 1,955 ? -14.9°
Maximum altitude 03:36:05 79° 286° (WNW) 621 ? -14.6°
Enters shadow 03:38:33 25° 202° (SSW) 1,244 ? -14.5°
